Date,TemperatureHighF,TemperatureAvgF,TemperatureLowF,DewpointHighF,DewpointAvgF,DewpointLowF,HumidityHigh,HumidityAvg,HumidityLow,PressureMaxIn,PressureMinIn,WindSpeedMaxMPH,WindSpeedAvgMPH,GustSpeedMaxMPH,PrecipitationSumIn
2013-1-1,32.0,22.2,10.0,26.8,13.6,1.6,85,69,56,29.90,29.64,22,4,23,0.00
2013-1-2,20.0,11.1,0.0,11.1,3.4,-7.2,85,71,55,30.07,29.85,14,4,26,0.00
2013-1-3,20.0,8.1,-3.0,9.1,0.2,-7.4,94,71,45,30.08,29.94,8,2,15,0.00
2013-1-4,33.0,23.0,6.0,25.5,18.2,3.7,100,83,64,29.93,29.74,14,2,18,0.00
2013-1-5,31.0,26.8,17.0,26.4,19.1,14.1,94,73,55,30.23,29.76,13,3,32,0.00
2013-1-6,30.0,23.9,16.0,27.0,22.2,14.6,100,93,84,30.18,29.91,5,1,7,0.00
2013-1-7,33.0,23.7,12.0,32.0,18.3,10.6,100,81,53,30.36,29.93,11,2,16,0.00
2013-1-8,40.0,26.0,12.0,26.5,21.3,10.6,100,83,57,30.33,30.20,10,2,19,0.00
2013-1-9,41.0,29.3,19.0,33.7,26.0,19.0,100,88,62,30.38,29.93,18,2,21,0.00
2013-1-10,40.0,36.2,28.0,32.6,26.3,23.2,86,67,58,30.50,29.95,22,5,27,0.12
2013-1-11,36.0,28.5,20.0,31.0,26.0,20.0,100,91,69,30.49,30.21,8,1,8,0.14
2013-1-12,35.0,32.7,31.0,35.0,32.7,31.0,100,100,100,30.21,30.09,2,0,4,0.12
2013-1-13,37.0,34.1,32.0,37.0,34.1,32.0,100,100,100,30.13,29.96,5,1,5,0.01
2013-1-14,55.0,40.7,34.0,54.0,34.9,24.8,100,81,57,30.23,29.84,16,2,23,0.00
2013-1-15,37.0,31.6,26.0,27.2,24.0,21.6,95,74,56,30.30,30.20,9,1,14,0.00
2013-1-16,29.0,27.4,26.0,28.0,26.4,22.4,100,96,76,30.24,29.79,3,0,5,0.00
2013-1-17,16.0,16.0,16.0,1.9,1.7,1.5,53,52,52,30.06,30.05,7,5,8,0.01
2013-1-18,17.0,11.7,5.0,5.7,-2.9,-12.1,78,52,40,30.37,30.05,12,3,17,0.00
2013-1-19,37.0,25.2,12.0,27.5,18.4,5.3,90,75,66,30.31,29.83,15,2,19,0.00
2013-1-20,45.0,33.6,21.0,33.7,22.0,1.5,86,64,40,29.89,29.49,16,6,29,0.18
2013-1-21,24.0,18.5,13.0,17.0,6.0,-1.2,98,60,42,30.04,29.80,13,2,27,0.00
2013-1-22,20.0,13.2,1.0,17.3,7.0,-2.9,98,78,45,30.02,29.76,14,2,19,0.00
2013-1-23,3.0,-0.9,-5.0,-2.2,-11.2,-16.1,86,62,47,30.11,29.99,13,3,18,0.00
2013-1-24,9.0,1.0,-7.0,-7.7,-13.1,-17.6,63,51,36,30.16,29.99,21,5,31,0.00
2013-1-25,18.0,8.9,1.0,-0.4,-5.3,-9.3,66,53,38,30.22,30.02,14,3,28,0.00
2013-1-26,17.0,11.7,7.0,0.9,-2.3,-6.3,73,54,37,30.15,29.97,13,3,20,0.00
2013-1-27,22.0,14.5,8.0,3.4,-1.5,-7.4,67,50,34,30.41,30.14,13,4,23,0.00
2013-1-28,23.0,17.4,10.0,19.0,7.8,-8.4,100,70,31,30.40,30.04,11,1,18,0.00
2013-1-29,30.0,22.0,9.0,30.0,21.4,9.0,100,97,84,30.19,30.05,3,0,6,0.00
2013-1-30,52.0,36.1,30.0,52.0,36.1,30.0,100,100,100,30.12,29.43,12,2,19,0.73
2013-1-31,57.0,41.3,26.0,57.0,33.3,9.9,100,75,48,29.50,28.89,21,6,31,0.82
2013-2-1,27.0,20.8,14.0,17.5,9.6,3.0,76,62,48,30.04,29.51,13,4,21,0.00
2013-2-2,22.0,16.8,10.0,14.8,7.5,1.6,83,67,51,30.18,30.02,10,2,16,0.00
2013-2-3,26.0,20.9,15.0,16.5,15.0,13.3,96,78,63,30.03,29.70,5,1,8,0.00
2013-2-4,26.0,20.3,14.0,17.2,7.1,-0.7,85,58,37,29.87,29.67,14,3,32,0.00
2013-2-5,23.0,15.0,6.0,13.2,4.8,-1.7,81,64,49,30.01,29.87,8,1,9,0.00
2013-2-6,34.0,21.8,15.0,24.2,13.6,-6.8,99,73,35,30.28,29.92,12,2,19,0.00
2013-2-7,20.0,14.6,9.0,5.1,-1.8,-5.9,59,48,34,30.50,30.27,10,2,16,0.00
2013-2-8,16.0,12.4,9.0,13.0,9.0,0.1,100,87,51,30.49,29.86,8,1,11,0.00
2013-2-9,11.0,11.0,11.0,11.0,10.9,10.8,100,100,99,30.16,30.15,8,6,16,0.00
2013-2-10,32.0,17.8,5.0,16.9,6.8,-2.1,100,66,33,30.36,30.16,10,2,19,0.00
2013-2-11,29.0,18.3,4.0,29.0,17.8,2.9,100,98,89,30.33,29.62,2,0,4,0.00
2013-2-12,37.0,32.0,26.0,33.0,29.2,25.9,100,90,70,29.80,29.58,10,2,17,0.22
2013-2-13,39.0,30.8,23.0,26.6,22.9,20.9,96,73,53,29.84,29.75,9,2,17,0.07
2013-2-14,37.0,25.6,19.0,24.9,21.4,18.8,100,86,55,29.99,29.73,6,1,12,0.04
2013-2-15,47.0,30.9,17.0,31.6,24.5,17.0,100,79,51,29.99,29.89,8,2,16,0.09
2013-2-16,37.0,30.8,25.0,29.8,22.2,11.1,100,72,55,29.96,29.76,10,2,12,0.00
2013-2-17,25.0,16.2,11.0,15.8,8.5,1.2,100,73,52,29.76,29.34,25,7,36,0.01
2013-2-18,24.0,16.2,7.0,3.6,-0.6,-4.2,71,50,30,30.07,29.59,18,7,42,0.00
2013-2-19,39.0,25.8,13.0,33.0,15.9,-1.2,100,68,37,30.12,29.56,6,1,11,0.14
2013-2-20,34.0,28.4,22.0,34.0,22.2,13.6,100,78,60,29.73,29.50,11,3,19,0.04
2013-2-21,25.0,23.1,21.0,17.5,14.2,11.1,78,68,60,30.18,29.85,13,4,21,0.00
2013-2-22,29.0,29.0,29.0,24.2,24.2,24.2,82,82,82,30.33,30.32,6,4,9,0.00
2013-2-23,35.0,30.1,25.0,32.2,28.6,22.7,100,94,82,30.33,29.98,8,1,9,0.00
2013-2-24,31.0,29.8,27.0,31.0,29.8,27.0,100,100,100,29.98,29.77,1,0,4,0.00
2013-2-25,37.0,28.3,18.0,35.5,28.2,18.0,100,99,92,30.22,29.91,5,0,6,0.05
2013-2-26,37.0,31.7,28.0,36.7,31.1,28.0,100,98,87,30.35,30.20,5,1,5,0.35
2013-2-27,34.0,30.8,29.0,34.0,30.8,29.0,100,100,100,30.20,29.69,5,1,10,0.31
2013-2-28,39.0,32.6,28.0,37.0,32.2,28.0,100,99,86,29.69,29.56,5,1,6,0.64
2013-3-1,35.0,32.3,29.0,35.0,30.7,27.6,100,94,85,29.69,29.56,7,1,11,0.15
2013-3-2,41.0,33.2,28.0,29.7,27.5,25.3,100,80,62,29.68,29.61,7,2,11,0.19
2013-3-3,39.0,30.9,27.0,32.9,28.2,23.8,100,90,71,29.64,29.55,10,2,17,0.11
2013-3-4,31.0,27.1,24.0,25.8,22.0,19.8,87,81,70,29.74,29.56,16,5,24,0.00
2013-3-5,44.0,32.8,26.0,34.4,27.3,21.0,100,81,58,30.07,29.74,13,2,17,0.01
2013-3-6,29.0,29.0,29.0,28.5,28.5,28.5,98,98,98,30.15,30.15,1,1,5,0.00
2013-3-7,33.0,29.4,28.0,29.0,26.5,24.6,100,89,76,30.17,30.07,9,2,16,0.01
2013-3-8,32.0,31.3,31.0,22.6,22.3,22.0,70,69,68,30.19,30.19,1,1,5,0.06
2013-3-9,53.0,33.8,21.0,31.2,23.3,16.4,100,69,25,30.35,30.17,8,1,11,0.00
2013-3-10,44.0,29.5,19.0,32.4,26.5,19.0,100,90,60,30.39,30.27,7,1,10,0.00
2013-3-11,49.0,35.3,27.0,35.0,31.2,27.0,100,87,50,30.29,30.11,8,1,14,0.00
2013-3-12,44.0,39.0,35.0,44.0,39.0,35.0,100,100,100,30.11,29.71,10,2,13,0.56
2013-3-13,46.0,37.9,28.0,42.0,32.8,26.5,100,83,52,29.77,29.70,16,3,18,0.01
2013-3-14,34.0,27.1,15.0,28.0,18.1,3.3,95,69,52,29.79,29.65,14,4,28,0.00
2013-3-15,36.0,22.5,13.0,29.0,12.4,1.6,100,67,39,29.81,29.60,13,4,27,0.00
2013-3-16,30.0,25.8,21.0,25.0,15.3,11.0,100,65,47,29.89,29.68,8,2,17,0.00
2013-3-17,23.0,22.8,22.0,14.0,13.3,13.0,68,66,65,29.89,29.88,1,1,4,0.00
2013-3-18,31.0,29.5,28.0,22.0,16.4,8.3,78,59,38,30.29,30.24,8,2,10,0.00
2013-3-19,31.0,26.7,22.0,31.0,26.5,22.0,100,99,79,30.23,29.73,11,0,13,0.00
2013-3-20,33.0,27.3,21.0,27.7,21.9,17.9,100,82,59,29.76,29.67,10,2,18,0.00
2013-3-21,36.0,26.9,19.0,23.2,18.1,13.0,89,70,45,29.78,29.62,11,2,19,0.01
2013-3-22,36.0,26.0,14.0,24.0,17.8,11.1,94,73,47,29.71,29.61,8,2,14,0.07
2013-3-23,38.0,30.6,22.0,24.0,20.9,16.5,82,68,47,29.77,29.61,13,4,26,0.07
2013-3-24,43.0,34.5,25.0,26.9,24.6,22.5,93,68,50,29.82,29.73,14,4,24,0.12
2013-3-25,41.0,30.1,19.0,31.0,26.2,19.0,100,87,62,29.80,29.59,5,1,8,0.00
2013-3-26,47.0,37.2,28.0,29.4,24.4,21.1,91,62,37,29.78,29.59,8,2,13,0.00
2013-3-27,48.0,39.6,34.0,34.5,27.3,22.9,98,63,44,29.92,29.75,13,3,19,0.00
2013-3-28,45.0,38.5,32.0,37.9,33.4,30.9,100,83,64,30.03,29.91,8,2,11,0.04
2013-3-29,51.0,43.7,39.0,36.6,33.5,30.4,82,68,51,30.06,29.99,10,3,16,0.00
2013-3-30,52.0,41.6,28.0,31.7,26.1,17.7,80,57,29,30.11,30.03,8,2,13,0.00
2013-3-31,54.0,37.7,23.0,39.0,27.0,21.5,100,70,33,30.12,29.82,13,2,16,0.01
2013-4-1,53.0,38.9,30.0,44.2,34.0,14.1,100,84,44,29.82,29.51,14,3,19,0.51
2013-4-2,35.0,29.3,25.0,19.5,12.6,8.2,58,50,40,29.87,29.75,15,4,24,0.00
2013-4-3,41.0,32.4,25.0,19.1,12.6,9.1,61,45,28,30.11,29.85,13,4,23,0.00
2013-4-4,52.0,37.9,29.0,25.3,16.9,11.2,65,44,25,30.26,29.98,11,4,21,0.00
2013-4-5,55.0,41.9,33.0,29.1,25.9,20.2,73,55,33,29.98,29.69,14,4,23,0.00
2013-4-6,39.0,30.3,23.0,20.6,10.7,4.2,66,45,26,30.33,29.88,14,3,24,0.00
2013-4-7,53.0,38.5,24.0,35.3,24.2,15.2,76,58,34,30.31,29.94,18,4,28,0.00
2013-4-8,57.0,46.3,39.0,39.7,36.0,33.0,95,69,43,30.13,29.92,15,4,26,0.00
2013-4-9,54.0,42.4,38.0,50.7,40.1,34.2,100,92,64,30.11,29.92,11,2,14,0.41
2013-4-10,55.0,43.8,38.0,48.9,42.0,37.9,100,94,71,30.00,29.90,7,1,8,0.71
2013-4-11,48.0,41.8,37.0,43.0,33.2,20.0,100,75,41,30.19,29.88,8,1,14,0.12
2013-4-12,38.0,31.7,29.0,31.0,28.2,20.9,100,89,52,30.25,29.89,5,1,6,0.07
2013-4-13,47.0,37.2,31.0,40.5,35.1,31.0,100,93,67,29.93,29.81,4,1,6,0.56
2013-4-14,38.0,38.0,38.0,30.8,30.8,30.8,75,75,75,30.21,30.21,5,3,6,0.00
2013-4-15,54.0,41.3,27.0,37.7,32.9,27.0,100,75,42,30.39,30.21,14,2,16,0.00
2013-4-16,62.0,48.3,33.0,52.7,42.2,33.0,100,81,52,30.40,30.00,19,6,34,0.05
2013-4-17,60.0,51.1,38.0,54.2,34.8,29.2,97,56,35,30.36,30.02,17,4,29,0.00
2013-4-18,56.0,45.1,30.0,39.7,33.7,27.5,99,67,42,30.47,30.15,10,2,15,0.00
2013-4-19,71.0,59.1,48.0,62.0,53.8,36.6,100,84,62,30.15,29.63,23,5,29,0.01
2013-4-20,62.0,47.9,37.0,62.0,35.8,21.0,100,66,40,30.22,29.64,16,4,20,0.28
2013-4-21,50.0,39.2,32.0,26.3,21.0,17.2,76,49,31,30.69,30.22,10,2,18,0.00
2013-4-22,31.0,31.0,31.0,30.5,30.3,30.2,98,97,97,30.64,30.63,0,0,1,0.00
2013-4-23,39.0,34.9,28.0,39.0,34.5,28.0,100,98,88,30.63,30.21,3,1,6,0.01
2013-4-24,72.0,52.7,39.0,53.7,46.2,39.0,100,81,41,30.20,29.78,11,3,17,0.01
2013-4-25,59.0,51.5,37.0,50.9,36.3,29.3,88,58,36,30.32,29.78,14,4,17,0.00
2013-4-26,59.0,46.3,32.0,39.5,33.3,29.2,96,64,38,30.44,30.31,6,1,10,0.00
2013-4-27,63.0,48.6,33.0,42.8,36.7,32.7,100,67,34,30.44,30.29,9,2,14,0.00
2013-4-28,67.0,51.1,35.0,44.0,38.8,34.7,100,67,35,30.35,30.23,11,3,16,0.00
2013-4-29,68.0,52.3,39.0,47.5,40.5,35.5,91,67,39,30.29,30.19,10,2,16,0.00
2013-4-30,70.0,55.4,41.0,43.4,39.3,32.5,93,59,34,30.40,30.26,10,2,15,0.00
2013-5-1,73.0,54.3,35.0,43.8,36.7,30.4,88,55,25,30.48,30.39,11,2,13,0.00
2013-5-2,76.0,52.1,40.0,47.3,39.1,31.1,94,64,28,30.53,30.39,7,1,18,0.00
2013-5-3,67.0,51.2,36.0,48.3,41.5,34.6,100,72,47,30.56,30.40,8,1,10,0.00
2013-5-4,70.0,51.8,40.0,47.6,41.4,34.5,100,72,28,30.41,30.29,14,2,16,0.00
2013-5-5,69.0,49.8,33.0,46.1,39.3,33.0,100,71,38,30.36,30.23,8,2,14,0.00
2013-5-6,73.0,53.1,35.0,48.7,42.5,35.0,100,72,33,30.29,30.15,13,2,19,0.00
2013-5-7,79.0,59.3,41.0,57.6,48.7,41.0,100,74,30,30.20,30.10,11,2,14,0.00
2013-5-8,72.0,60.7,50.0,60.1,56.0,50.0,100,87,59,30.25,30.11,13,2,17,0.23
2013-5-9,63.0,56.9,54.0,62.0,56.6,53.0,100,99,86,30.11,29.93,5,1,9,0.26
2013-5-10,74.0,61.1,53.0,65.1,57.0,53.0,100,88,53,29.99,29.93,11,2,13,0.00
2013-5-11,66.0,58.5,53.0,63.9,58.2,53.0,100,99,89,29.94,29.71,11,4,17,0.53
2013-5-12,68.0,57.2,46.0,58.0,48.0,28.1,100,75,41,29.80,29.60,13,2,15,0.08
2013-5-13,54.0,46.4,40.0,33.1,30.6,27.9,67,54,41,30.06,29.80,11,3,19,0.00
2013-5-14,39.0,39.0,39.0,32.4,32.2,32.1,77,76,76,30.06,30.06,0,0,0,0.00
2013-5-15,66.0,48.6,32.0,51.0,39.6,30.7,100,77,34,30.07,29.70,14,2,21,0.12
2013-5-16,77.0,61.1,45.0,55.4,45.1,38.5,100,63,26,29.87,29.63,18,2,24,0.00
2013-5-17,66.0,55.5,47.0,44.1,40.7,37.9,84,59,36,30.24,29.87,12,3,21,0.00
2013-5-18,69.0,54.6,42.0,51.7,46.4,41.6,100,77,40,30.33,30.23,9,2,13,0.00
2013-5-19,63.0,53.7,48.0,54.6,50.4,46.9,100,89,73,30.37,30.24,8,2,10,0.15
2013-5-20,72.0,58.9,51.0,64.4,56.9,51.0,100,94,73,30.23,29.98,8,2,10,0.25
2013-5-21,63.0,55.0,49.0,59.4,54.4,49.0,100,98,86,30.14,29.97,8,1,11,0.37
2013-5-22,58.0,52.6,49.0,58.0,52.5,49.0,100,100,95,30.05,29.92,8,1,8,0.66
2013-5-23,70.0,58.3,49.0,68.0,58.1,49.0,100,99,91,29.97,29.81,9,2,15,0.13
2013-5-24,67.0,59.7,48.0,67.0,58.2,48.0,100,95,75,29.89,29.68,10,2,16,0.53
2013-5-25,48.0,45.1,36.0,48.0,45.1,36.0,100,100,100,29.89,29.73,11,2,19,1.23
2013-5-26,54.0,45.1,36.0,41.5,38.9,36.0,100,81,59,30.06,29.70,15,4,21,0.18
2013-5-27,67.0,53.4,38.0,44.1,38.4,32.7,100,61,30,30.20,30.06,10,2,14,0.00
2013-5-28,74.0,53.1,38.0,51.9,43.8,38.0,100,75,35,30.27,30.19,10,1,13,0.00
2013-5-29,56.0,53.2,51.0,56.0,52.6,45.7,100,98,82,30.20,30.02,3,0,4,0.36
2013-5-30,85.0,68.0,54.0,70.0,61.6,54.0,100,83,47,30.08,30.03,8,1,16,0.00
2013-5-31,93.0,74.9,58.0,71.0,64.0,58.0,100,73,39,30.12,29.95,7,1,14,0.00
2013-6-1,93.0,79.1,64.0,70.0,66.5,62.7,100,69,39,29.99,29.87,10,2,19,0.00
2013-6-2,90.0,75.6,65.0,72.8,68.4,63.3,100,81,47,29.88,29.71,19,4,24,0.44
2013-6-3,81.0,68.3,60.0,66.9,60.4,49.8,100,79,39,29.86,29.77,10,2,13,0.00
2013-6-4,65.0,58.5,52.0,50.2,44.1,40.9,71,59,46,30.11,29.85,11,3,19,0.00
2013-6-5,73.0,61.3,50.0,50.7,44.2,38.8,81,56,31,30.19,30.10,6,2,14,0.00
2013-6-6,73.0,62.3,53.0,56.9,50.2,44.2,88,66,45,30.23,30.14,8,2,10,0.00
2013-6-8,72.0,63.6,52.0,62.3,58.4,52.0,100,84,70,30.03,29.72,8,2,11,1.06
2013-6-9,76.0,65.6,55.0,58.8,56.0,52.5,100,73,49,30.20,30.03,6,2,13,0.00
2013-6-10,70.0,60.5,52.0,61.4,57.1,52.0,100,89,71,30.23,30.07,5,1,9,0.14
2013-6-11,59.0,54.9,53.0,59.0,54.9,53.0,100,100,96,30.07,29.62,4,1,7,1.11
2013-6-12,65.0,59.0,53.0,57.6,54.6,52.4,100,86,70,29.84,29.59,10,2,14,0.01
2013-6-13,69.0,59.3,50.0,59.3,54.5,50.0,100,86,62,29.84,29.75,8,1,10,0.11
2013-6-14,77.0,61.8,53.0,60.5,55.6,50.3,100,83,40,29.80,29.71,6,1,12,0.00
2013-6-15,76.0,65.3,54.0,54.6,48.0,41.7,90,56,34,29.95,29.80,10,2,14,0.00
2013-6-16,74.0,61.7,49.0,63.7,56.3,49.0,100,85,49,29.95,29.73,9,1,11,0.01
2013-6-17,81.0,65.4,56.0,63.7,59.5,56.0,100,84,46,29.92,29.79,8,2,13,0.06
2013-6-18,64.0,58.9,53.0,60.0,56.7,53.0,100,93,70,30.01,29.91,6,1,8,0.06
2013-6-19,75.0,61.8,48.0,58.3,50.3,44.8,100,70,38,30.18,29.96,4,1,8,0.00
2013-6-20,79.0,62.8,46.0,57.7,51.9,45.0,100,71,37,30.28,30.18,8,1,16,0.00
2013-6-21,82.0,66.1,52.0,62.8,57.3,51.6,100,76,45,30.26,30.21,5,1,6,0.00
2013-6-22,76.0,67.1,58.0,74.0,64.2,56.1,100,91,62,30.24,30.12,3,0,5,0.05
2013-6-23,84.0,68.9,64.0,75.2,67.8,64.0,100,97,75,30.17,30.01,6,1,10,0.25
2013-6-24,91.0,73.5,64.0,75.5,68.7,64.0,100,87,50,30.03,29.88,14,2,24,0.33
2013-6-25,66.0,66.0,66.0,66.0,66.0,66.0,100,100,100,29.78,29.77,1,0,2,0.00
2013-6-26,75.0,68.0,61.0,74.1,67.9,61.0,100,100,91,29.91,29.76,5,1,8,0.32
2013-6-27,71.0,64.5,59.0,70.1,64.3,59.0,100,99,93,29.89,29.81,5,2,8,0.01
2013-6-28,63.0,59.8,56.0,63.0,59.8,56.0,100,100,100,29.83,29.55,4,1,8,3.09
2013-6-29,83.0,70.9,62.0,74.0,67.7,62.0,100,91,65,29.72,29.55,8,2,14,0.44
2013-6-30,66.0,66.0,66.0,66.0,66.0,66.0,100,100,100,29.96,29.96,0,0,1,1.58
2013-7-1,75.0,70.2,66.0,75.0,70.2,66.0,100,100,99,30.10,29.96,3,1,5,0.50
2013-7-2,60.0,60.0,60.0,60.0,60.0,60.0,100,100,100,30.22,30.22,1,0,3,0.19
2013-7-3,88.0,71.6,60.0,77.6,68.5,60.0,100,91,65,30.22,30.11,7,1,11,0.18
2013-7-4,92.0,77.9,68.0,79.0,74.0,68.0,100,89,58,30.20,30.07,6,1,16,0.29
2013-7-5,94.0,79.8,69.0,79.4,73.6,69.0,100,84,52,30.16,30.02,7,1,10,0.00
2013-7-6,89.0,78.9,70.0,74.5,71.3,65.2,100,79,57,30.08,29.97,8,2,11,0.00
2013-7-7,87.0,75.1,67.0,76.0,70.5,66.4,100,87,55,30.03,29.92,4,1,7,0.02
2013-7-8,80.0,73.0,63.0,76.0,71.6,63.0,100,96,81,30.09,29.94,6,1,8,0.63
2013-7-9,74.0,68.4,63.0,70.5,67.4,63.0,100,97,87,30.14,30.07,5,1,8,0.00
2013-7-10,73.0,68.2,65.0,72.7,68.1,65.0,100,100,95,30.10,29.80,7,2,9,0.62
2013-7-11,81.0,71.7,66.0,76.0,69.8,64.5,100,94,69,29.98,29.78,4,1,6,0.01
2013-7-12,81.0,70.3,62.0,68.2,63.0,60.2,97,79,55,30.23,29.98,4,1,7,0.00
2013-7-13,83.0,70.8,60.0,70.7,65.6,60.0,100,85,61,30.33,30.23,4,1,10,0.00
2013-7-14,85.0,75.3,66.0,77.3,71.7,66.0,100,90,71,30.31,30.20,4,1,8,0.00
2013-7-15,92.0,78.8,68.0,77.0,70.2,66.9,100,78,49,30.22,30.09,6,1,10,0.00
2013-7-16,92.0,79.5,70.0,75.7,70.9,66.2,100,77,49,30.19,30.13,6,1,11,0.00
2013-7-17,94.0,80.1,69.0,76.6,72.4,69.0,100,80,52,30.19,29.98,6,1,13,0.13
2013-7-18,88.0,76.8,70.0,77.1,72.6,69.8,100,88,62,30.05,29.96,8,1,18,0.11
2013-7-19,95.0,81.7,69.0,78.4,73.8,69.0,100,80,54,29.96,29.69,11,2,16,0.01
2013-7-20,88.0,78.9,71.0,73.8,68.7,64.9,100,72,55,29.82,29.65,13,2,27,0.36
2013-7-21,78.0,72.4,64.0,68.6,66.1,62.0,100,81,68,30.01,29.82,6,2,10,0.00
2013-7-23,64.0,64.0,64.0,64.0,64.0,64.0,100,100,100,29.62,29.62,0,0,1,0.00
2013-7-24,79.0,68.5,56.0,74.7,62.9,49.6,100,84,59,29.99,29.59,9,2,16,0.00
2013-7-25,72.0,62.5,53.0,63.3,56.6,49.6,100,82,62,30.11,29.99,3,1,9,0.00
2013-7-26,70.0,64.1,60.0,67.2,63.3,60.0,100,97,85,30.10,29.94,8,1,13,0.31
2013-7-27,84.0,71.3,62.0,68.0,62.7,55.7,99,77,46,30.03,29.96,8,2,11,0.00
2013-7-28,80.0,69.2,62.0,71.4,67.0,62.0,100,93,69,30.03,29.97,6,1,10,0.05
2013-7-29,82.0,68.4,62.0,71.6,66.5,62.0,100,95,68,30.06,29.96,6,2,16,1.77
2013-7-30,78.0,67.2,58.0,62.7,59.1,54.5,100,79,47,30.09,30.03,8,2,16,0.01
2013-7-31,80.0,69.4,58.0,66.2,60.6,56.4,100,75,47,30.13,30.03,6,2,11,0.00
2013-8-1,80.0,68.0,60.0,68.4,64.4,60.0,100,90,60,30.05,29.87,5,1,11,0.23
2013-8-2,81.0,70.1,64.0,69.4,63.6,56.4,100,82,46,29.88,29.77,7,2,14,0.29
2013-8-3,79.0,68.7,61.0,63.6,59.1,54.9,100,73,49,29.85,29.76,8,2,18,0.01
2013-8-4,75.0,66.2,60.0,59.7,56.2,52.6,94,71,53,29.88,29.78,8,2,11,0.00
2013-8-5,71.0,62.4,57.0,53.8,48.7,40.7,87,63,36,30.04,29.87,10,3,17,0.00
2013-8-6,78.0,64.2,50.0,60.1,54.1,47.7,100,73,44,30.15,30.04,8,1,9,0.00
2013-8-7,78.0,67.0,53.0,63.4,58.2,49.8,100,75,50,30.17,30.09,6,1,10,0.00
2013-8-8,82.0,70.3,62.0,71.3,66.5,58.7,100,89,68,30.11,29.98,8,3,16,0.06
2013-8-9,73.0,71.0,66.0,73.0,70.9,66.0,100,100,97,30.02,29.74,6,2,10,1.15
2013-8-10,77.0,69.6,61.0,68.0,59.3,51.2,100,73,41,30.01,29.78,8,2,13,0.00
2013-8-11,77.0,64.3,53.0,61.5,54.9,50.7,100,74,48,30.05,29.98,6,1,12,0.00
2013-8-12,79.0,67.1,57.0,65.2,59.3,55.8,100,79,49,30.01,29.90,5,1,10,0.00
2013-8-13,71.0,65.5,60.0,70.0,64.6,59.8,100,97,84,29.92,29.69,7,1,16,0.92
2013-8-14,59.0,59.0,59.0,50.7,50.7,50.7,74,74,74,29.92,29.92,8,4,16,0.00
2013-8-15,73.0,62.4,50.0,59.6,52.9,50.0,100,73,50,30.08,29.93,8,2,16,0.00
2013-8-16,77.0,63.7,52.0,64.0,56.9,52.0,100,81,50,30.18,30.08,6,1,9,0.00
2013-8-17,78.0,65.2,55.0,63.5,58.5,55.0,100,82,47,30.26,30.18,5,1,8,0.00
2013-8-18,77.0,66.3,57.0,66.5,60.7,57.0,100,83,58,30.27,30.07,6,1,6,0.00
2013-8-19,72.0,72.0,72.0,61.6,61.6,61.6,70,70,70,29.97,29.97,2,2,9,0.00
2013-8-20,83.0,72.3,64.0,69.6,64.2,59.3,96,77,52,30.09,29.97,7,1,11,0.00
2013-8-21,86.0,72.4,61.0,71.1,65.8,61.0,100,82,48,30.14,30.00,6,1,11,0.00
2013-8-22,86.0,76.2,65.0,72.2,66.5,61.0,100,73,49,30.02,29.80,8,2,12,0.00
2013-8-23,78.0,70.0,59.0,65.5,57.3,51.1,82,66,43,30.15,29.82,7,2,12,0.00
2013-8-24,76.0,62.6,51.0,58.7,53.0,47.6,99,73,42,30.32,30.15,4,1,5,0.00
2013-8-25,79.0,65.4,52.0,63.8,57.4,52.0,100,78,48,30.34,30.14,7,1,16,0.00
2013-8-26,76.0,69.1,61.0,71.4,65.5,57.3,100,89,59,30.14,29.87,11,2,16,0.13
2013-8-27,84.0,72.8,65.0,71.7,68.3,65.0,100,87,59,29.92,29.84,5,1,7,0.00
2013-8-28,84.0,71.4,63.0,73.1,68.0,63.0,100,90,65,30.03,29.86,6,1,11,1.03
2013-8-29,66.0,64.3,62.0,66.0,64.1,62.0,100,99,96,30.10,29.98,4,1,5,0.08
2013-8-30,83.0,71.5,60.0,72.3,66.1,60.0,100,85,62,30.02,29.79,7,1,13,0.00
2013-8-31,80.0,73.5,67.0,74.8,70.7,66.7,100,91,73,29.83,29.75,6,1,13,0.02
2013-9-1,81.0,75.2,70.0,75.4,71.7,68.9,100,89,74,29.89,29.77,5,1,11,0.00
2013-9-2,72.0,69.8,68.0,72.0,69.8,68.0,100,100,100,29.88,29.74,5,1,8,0.96
2013-9-3,76.0,68.8,64.0,70.7,66.1,59.3,100,92,76,29.78,29.71,5,1,10,0.05
2013-9-4,77.0,67.5,61.0,62.4,58.5,55.0,90,74,50,29.90,29.78,8,2,14,0.00
2013-9-5,67.0,59.9,50.0,61.0,50.2,39.8,100,73,41,30.14,29.86,9,2,14,0.05
2013-9-6,68.0,55.1,45.0,51.8,44.3,40.4,99,69,44,30.22,30.04,8,1,10,0.00
2013-9-7,64.0,64.0,64.0,52.4,52.3,52.0,66,66,65,29.82,29.82,3,2,6,0.00
2013-9-8,64.0,59.9,50.0,57.4,47.9,40.4,86,65,50,30.07,29.73,13,3,21,0.00
2013-9-9,68.0,56.3,44.0,52.2,46.3,40.7,96,71,46,30.19,30.06,8,2,9,0.00
2013-9-10,65.0,60.4,52.0,65.0,59.4,49.8,100,97,84,30.11,30.01,5,1,7,0.09
2013-9-11,90.0,74.0,64.0,78.9,70.6,64.0,100,91,61,30.05,29.91,13,2,23,0.38
2013-9-12,75.0,69.0,66.0,75.0,68.7,63.6,100,99,74,29.95,29.68,11,2,21,1.23
2013-9-13,70.0,63.1,55.0,70.0,62.7,53.6,100,99,94,29.76,29.60,8,2,14,0.39
2013-9-14,65.0,57.9,54.0,55.1,52.4,47.3,95,83,68,30.02,29.76,8,3,13,0.00
2013-9-15,61.0,60.3,60.0,52.6,52.5,52.4,76,75,74,30.01,30.00,3,2,5,0.00
2013-9-16,62.0,55.4,44.0,55.7,48.7,35.9,100,79,59,30.25,29.98,13,2,17,0.04
2013-9-17,63.0,50.0,39.0,51.3,42.3,35.9,100,77,52,30.40,30.25,5,1,7,0.00
2013-9-18,71.0,55.1,42.0,56.2,48.4,42.0,100,82,38,30.29,30.10,4,1,8,0.00
2013-9-19,74.0,58.9,48.0,62.0,54.4,48.0,100,87,49,30.12,30.02,4,1,6,0.00
2013-9-20,76.0,60.6,50.0,62.4,56.4,50.0,100,88,55,30.10,29.99,6,1,10,0.00
2013-9-21,72.0,61.5,51.0,64.8,58.0,51.0,100,89,67,30.01,29.71,9,3,15,0.00
2013-9-22,67.0,61.0,49.0,66.0,56.0,41.8,100,85,59,29.81,29.59,10,3,19,0.68
2013-9-23,55.0,49.0,46.0,42.9,40.5,37.5,80,73,61,29.97,29.80,14,4,23,0.00
2013-9-24,61.0,51.0,45.0,46.1,41.9,38.5,82,71,55,29.94,29.81,10,4,24,0.00
2013-9-25,61.0,53.4,46.0,53.7,48.3,43.7,94,83,68,29.98,29.84,5,1,11,0.00
2013-9-26,65.0,53.1,43.0,54.6,49.3,43.0,100,88,61,30.14,29.98,3,0,5,0.00
2013-9-27,67.0,56.8,49.0,57.6,52.4,49.0,100,86,62,30.25,30.14,4,1,5,0.00
2013-9-28,71.0,56.3,47.0,58.4,52.5,47.0,100,89,53,30.33,30.25,4,0,6,0.00
2013-9-29,69.0,54.9,45.0,59.1,51.3,44.5,100,89,60,30.26,30.10,7,1,11,0.00
2013-9-30,68.0,52.3,42.0,58.0,50.0,42.0,100,93,60,30.11,29.96,2,0,3,0.00
2013-10-1,72.0,57.0,46.0,61.7,53.8,46.0,100,90,56,29.97,29.83,3,1,8,0.00
2013-10-2,76.0,63.8,52.0,62.9,57.5,52.0,100,82,57,29.93,29.80,7,2,12,0.00
2013-10-3,73.0,62.1,52.0,58.9,53.1,48.5,100,75,46,30.07,29.92,6,1,11,0.00
2013-10-4,57.0,57.0,57.0,56.4,56.4,56.4,98,98,98,30.07,30.07,0,0,0,0.00
2013-10-5,62.0,57.6,55.0,57.0,52.1,46.8,100,83,64,30.12,30.05,1,0,3,0.00
2013-10-6,56.0,51.2,48.0,55.7,47.5,40.6,100,88,67,30.24,30.11,4,0,7,0.20
2013-10-7,67.0,56.2,50.0,67.0,55.9,50.0,100,99,83,30.16,29.72,8,1,24,1.31
2013-10-8,59.0,52.8,40.0,51.5,43.3,39.0,100,71,52,30.37,29.87,11,2,22,0.00
2013-10-9,61.0,46.6,38.0,50.0,43.4,38.0,100,90,55,30.46,30.35,4,0,6,0.00
2013-10-10,61.0,49.7,40.0,54.7,47.8,40.0,100,94,71,30.35,30.16,3,0,4,0.00
2013-10-11,65.0,52.9,46.0,56.7,50.1,46.0,100,92,60,30.17,30.11,3,0,3,0.00
2013-10-12,54.0,50.3,44.0,54.0,50.2,44.0,100,100,97,30.39,30.17,4,0,5,0.00
2013-10-13,56.0,48.5,41.0,51.7,46.6,41.0,100,94,76,30.43,30.35,5,0,5,0.00
2013-10-14,66.0,52.3,41.0,55.1,48.0,41.0,100,87,62,30.37,30.20,6,1,8,0.00
2013-10-15,63.0,56.3,50.0,56.4,53.5,47.8,100,91,76,30.26,30.17,8,1,8,0.00
2013-10-16,59.0,53.4,48.0,54.0,51.9,47.7,100,95,78,30.17,29.89,5,1,8,0.00
2013-10-17,68.0,55.9,48.0,58.1,51.8,48.0,100,88,56,29.89,29.70,8,1,11,0.00
2013-10-18,63.0,55.9,51.0,55.0,49.5,37.2,100,81,57,29.86,29.59,9,2,17,0.40
2013-10-19,63.0,52.1,42.0,50.2,44.5,37.6,94,77,55,29.93,29.72,9,2,14,0.00
2013-10-20,58.0,51.8,47.0,49.0,40.1,33.5,95,67,41,29.97,29.65,13,4,21,0.01
2013-10-21,62.0,49.2,38.0,50.0,42.6,35.8,100,79,52,30.07,29.94,7,1,13,0.00
2013-10-22,55.0,49.8,43.0,53.4,46.3,35.5,99,88,71,29.94,29.69,14,4,18,0.05
2013-10-23,52.0,44.9,37.0,39.4,35.8,31.9,95,71,52,29.76,29.57,6,1,10,0.00
2013-10-24,49.0,42.6,33.0,36.0,32.0,27.8,95,67,52,29.83,29.61,13,3,23,0.01
2013-10-25,44.0,38.7,34.0,34.8,30.0,26.0,90,72,52,30.07,29.83,12,3,18,0.00
2013-10-26,46.0,40.3,31.0,36.9,32.1,27.5,95,74,54,30.09,29.83,11,2,16,0.00
2013-10-27,51.0,44.3,36.0,37.2,33.4,27.9,82,66,47,30.00,29.75,11,2,18,0.00
2013-10-28,53.0,41.8,33.0,38.1,30.9,22.3,86,66,53,30.31,29.99,11,3,21,0.00
2013-10-29,45.0,33.0,25.0,31.0,25.4,20.7,98,75,48,30.41,30.30,4,1,7,0.00
2013-10-30,46.0,36.4,29.0,37.0,30.2,22.7,100,79,61,30.31,30.15,9,1,13,0.00
2013-10-31,57.0,44.3,33.0,57.0,44.1,33.0,100,100,95,30.21,29.73,8,2,14,0.31
2013-11-1,63.0,59.5,51.0,63.0,56.1,44.2,100,89,56,29.73,29.37,16,4,25,0.54
2013-11-2,62.0,51.2,43.0,48.6,45.4,42.4,100,82,53,29.73,29.59,10,2,13,0.08
2013-11-3,44.0,37.0,27.0,42.4,27.3,18.7,94,69,42,30.39,29.74,6,2,13,0.00
2013-11-4,39.0,29.7,24.0,23.6,19.9,16.0,87,68,41,30.66,30.39,6,1,8,0.00
2013-11-5,46.0,34.5,25.0,33.7,27.9,19.4,94,78,53,30.66,30.45,11,1,14,0.00
2013-11-6,57.0,46.2,34.0,46.5,40.7,31.9,100,82,63,30.45,29.94,13,2,19,0.00
2013-11-7,56.0,49.1,39.0,56.0,45.7,28.6,100,88,66,29.95,29.65,17,5,21,0.24
2013-11-8,42.0,36.5,32.0,32.4,25.8,22.5,77,65,55,30.02,29.79,14,4,22,0.00
2013-11-9,39.0,35.9,33.0,29.1,23.8,20.6,72,61,52,30.13,29.99,13,3,18,0.00
2013-11-10,41.0,37.9,33.0,41.0,36.2,29.1,100,94,73,29.99,29.70,9,2,13,0.15
2013-11-11,45.0,38.5,34.0,36.5,30.8,27.2,98,74,56,30.03,29.81,13,3,27,0.01
2013-11-12,42.0,30.0,25.0,34.3,20.5,14.8,92,68,59,30.11,29.81,13,5,26,0.00
2013-11-13,30.0,25.3,20.0,17.8,13.7,11.3,73,62,47,30.22,30.06,13,3,18,0.00
2013-11-14,30.0,27.8,26.0,27.7,20.3,16.9,91,73,68,30.06,30.01,7,3,12,0.00
2013-11-15,52.0,37.8,29.0,33.0,28.3,24.2,96,71,37,30.15,30.04,7,1,10,0.00
2013-11-17,44.0,41.9,41.0,44.0,41.9,41.0,100,100,100,30.17,29.86,2,0,3,0.19
2013-11-18,60.0,51.6,44.0,57.0,44.4,31.5,100,78,50,29.86,29.48,14,3,23,0.51
2013-11-19,45.0,33.9,29.0,31.8,21.3,16.1,78,60,50,30.23,29.61,14,5,25,0.00
2013-11-20,38.0,30.4,26.0,19.1,16.0,13.5,68,55,39,30.54,30.23,11,3,21,0.00
2013-11-23,37.0,29.9,24.0,28.0,22.1,16.0,100,75,48,29.79,29.71,14,3,19,0.00
2013-11-24,24.0,18.4,15.0,16.3,8.8,2.1,87,66,49,29.95,29.73,17,7,42,0.00
2013-11-25,27.0,21.5,13.0,16.4,4.6,-3.9,64,48,32,30.28,30.16,12,3,26,0.00
2013-11-26,33.0,29.3,25.0,31.0,25.6,15.7,100,87,57,30.26,30.08,9,2,16,0.01
2013-11-27,48.0,38.5,31.0,47.0,38.2,29.0,100,99,86,30.07,29.21,13,2,26,2.81
2013-11-28,33.0,25.6,18.0,29.0,14.2,5.8,85,63,44,30.35,29.35,14,4,27,0.00
2013-11-29,26.0,19.5,15.0,10.1,8.2,6.4,79,61,46,30.68,30.34,10,2,13,0.00
2013-11-30,32.0,21.0,10.0,27.7,15.4,8.6,100,80,56,30.75,30.38,11,2,15,0.00
2013-12-1,35.0,30.9,27.0,33.7,29.1,20.8,100,93,77,30.37,30.02,5,1,11,0.05
2013-12-2,37.0,33.6,31.0,37.0,33.6,31.0,100,100,100,30.03,29.90,2,0,5,0.02
2013-12-3,38.0,33.7,29.0,38.0,32.8,28.2,100,97,76,29.91,29.84,14,1,14,0.00
2013-12-4,38.0,31.7,26.0,29.1,25.9,22.1,100,80,65,30.15,29.89,14,2,18,0.00
2013-12-5,35.0,32.0,26.0,35.0,31.8,26.0,100,99,94,30.19,29.87,3,0,4,0.11
2013-12-6,44.0,38.9,32.0,44.0,34.7,26.1,100,86,62,30.09,29.82,8,2,16,0.05
2013-12-7,33.0,29.5,24.0,30.5,19.7,12.6,98,67,52,30.38,30.04,14,3,24,0.00
2013-12-8,26.0,23.3,20.0,15.6,12.0,9.6,77,62,52,30.50,30.37,7,2,14,0.00
2013-12-9,26.0,23.5,21.0,26.0,20.9,12.1,100,91,60,30.46,29.83,3,1,6,0.00
2013-12-10,34.0,28.5,21.0,32.0,23.4,9.9,100,81,58,29.90,29.74,11,3,14,0.00
2013-12-11,28.0,22.2,17.0,19.0,14.3,10.8,96,72,57,30.10,29.90,13,3,18,0.00
2013-12-12,18.0,13.1,9.0,16.3,4.6,-3.0,93,69,47,30.23,29.97,13,3,15,0.00
2013-12-13,23.0,14.1,5.0,16.5,6.7,-5.8,89,73,54,30.35,29.87,19,4,21,0.00
2013-12-14,13.0,7.3,2.0,8.1,-1.1,-8.7,97,69,51,30.55,30.26,9,2,18,0.00
2013-12-15,25.0,17.2,8.0,25.0,17.2,7.3,100,100,97,30.25,29.43,7,2,16,0.00
2013-12-16,22.0,16.9,5.0,20.3,8.4,-3.6,100,70,47,30.16,29.66,11,3,24,0.00
2013-12-17,13.0,6.2,-5.0,12.1,2.0,-7.9,97,83,64,30.23,29.99,8,1,13,0.00
2013-12-18,29.0,21.8,13.0,22.6,17.9,12.1,98,86,63,29.99,29.83,10,2,19,0.00
2013-12-19,36.0,28.9,22.0,29.8,23.6,19.2,93,81,64,30.05,29.90,13,3,15,0.00
2013-12-20,38.0,33.1,29.0,33.0,30.7,27.7,100,91,75,30.09,29.88,10,1,12,0.10
2013-12-21,37.0,33.4,32.0,37.0,33.4,32.0,100,100,99,29.91,29.82,5,1,6,0.38
2013-12-22,36.0,30.7,28.0,36.0,30.7,28.0,100,100,100,30.04,29.81,7,1,12,0.32
2013-12-23,35.0,29.9,27.0,35.0,29.9,27.0,100,100,97,30.08,29.95,7,1,12,0.32
2013-12-24,33.0,24.9,13.0,32.2,17.9,6.9,98,75,55,30.18,30.02,10,4,18,0.01
2013-12-25,19.0,10.7,4.0,10.1,4.2,-3.6,91,75,59,30.48,30.17,12,2,21,0.00
2013-12-26,25.0,18.9,10.0,24.0,17.0,8.1,100,92,79,30.44,30.04,6,1,10,0.00
2013-12-27,31.0,22.5,15.0,25.0,18.8,14.8,100,87,62,30.18,30.11,6,1,17,0.00
2013-12-28,38.0,28.2,15.0,33.3,25.6,14.1,100,90,80,30.15,29.93,12,2,16,0.07
2013-12-29,34.0,29.9,26.0,34.0,29.9,26.0,100,100,97,29.99,29.55,3,0,5,0.05
2013-12-30,37.0,23.4,7.0,36.0,18.5,-4.3,100,81,58,30.13,29.58,11,4,20,0.07
2013-12-31,14.0,6.4,0.0,99.9,5.1,-33.3,98,78,12,30.13,29.98,7,1,15,0.00
2014-1-1,21.0,13.2,6.0,13.1,6.8,4.3,99,76,54,30.35,30.09,14,2,19,0.00
2014-1-2,11.0,1.9,-5.0,6.9,-0.5,-6.3,95,90,70,30.35,29.93,5,1,10,0.00